FW9274 Weather Reports


Display with metric or nautical units.
time (UTC)temp
F
wind
direction
speed
MPH
gust
MPH
rain 1hr
in
rain 24hr
in
rain mn
in
humidity
%
barometer
mb
20260504090110 55 210 2.0 2.0 0.00 0.00 0.00 52 996.1
20260504081541 54 219 5.0 5.0 0.00 0.00 0.00 50 996.8
20260504081036 54 230 6.0 7.0 0.00 0.00 0.00 49 997.2
20260504080533 54 238 4.0 5.0 0.00 0.00 0.00 50 997.2
20260504050346 56 246 0.0 0.0 0.00 0.00 0.00 45 1000.6
20260504045843 56 239 0.0 0.0 0.00 0.00 0.00 46 1000.6
20260504045338 56 227 0.0 0.0 0.00 0.00 0.00 45 1000.6
20260504044835 56 237 0.0 0.0 0.00 0.00 0.00 45 1000.6
20260504044333 56 226 0.0 0.0 0.00 0.00 0.00 45 1000.6
20260504043830 56 241 0.0 0.0 0.00 0.00 0.00 45 1000.6
20260504043326 56 235 0.0 0.0 0.00 0.00 0.00 45 1001.0
20260504042824 56 212 0.0 0.0 0.00 0.00 0.00 44 1001.0
20260504042320 56 242 0.0 0.0 0.00 0.00 0.00 45 1001.0
20260504041816 56 213 1.0 2.0 0.00 0.00 0.00 45 1001.3
20260504041313 56 233 0.0 0.0 0.00 0.00 0.00 44 1001.3
20260504040809 57 247 1.0 1.0 0.00 0.00 0.00 45 1001.3
20260504040307 57 252 0.0 0.0 0.00 0.00 0.00 44 1001.3
20260504035803 57 253 0.0 0.0 0.00 0.00 0.00 43 1001.3
20260504035300 57 226 1.0 2.0 0.00 0.00 0.00 43 1001.8
20260504034757 57 246 0.0 0.0 0.00 0.00 0.00 42 1001.8
20260504034255 57 249 0.0 0.0 0.00 0.00 0.00 42 1002.1
20260504033752 57 246 0.0 0.0 0.00 0.00 0.00 42 1002.1
20260504033249 57 243 0.0 0.0 0.00 0.00 0.00 42 1001.8
20260504032746 58 244 0.0 0.0 0.00 0.00 0.00 42 1002.1
20260504032243 58 247 0.0 0.0 0.00 0.00 0.00 42 1002.1
20260504031739 58 252 0.0 0.0 0.00 0.00 0.00 41 1002.1
20260504031238 58 247 0.0 0.0 0.00 0.00 0.00 41 1002.4
20260504030733 58 248 0.0 0.0 0.00 0.00 0.00 41 1002.4
20260504030230 58 249 0.0 0.0 0.00 0.00 0.00 42 1002.4
20260504025727 58 249 0.0 0.0 0.00 0.00 0.00 41 1002.4
20260504025224 59 249 0.0 0.0 0.00 0.00 0.00 41 1002.4
20260504024721 58 241 0.0 0.0 0.00 0.00 0.00 41 1002.4
20260504024217 58 264 0.0 0.0 0.00 0.00 0.00 42 1002.4
20260504023714 57 265 0.0 0.0 0.00 0.00 0.00 44 1002.4
20260504023210 57 265 0.0 0.0 0.00 0.00 0.00 44 1002.4
20260504022706 57 265 0.0 0.0 0.00 0.00 0.00 44 1002.4
20260504022202 58 265 0.0 0.0 0.00 0.00 0.00 45 1002.4
20260504021700 59 265 0.0 0.0 0.00 0.00 0.00 43 1002.4
20260504021156 59 265 0.0 0.0 0.00 0.00 0.00 40 1002.4
20260504020654 59 265 0.0 0.0 0.00 0.00 0.00 40 1002.8
20260504020149 59 265 0.0 0.0 0.00 0.00 0.00 41 1002.8
20260504015647 60 265 0.0 0.0 0.00 0.00 0.00 40 1002.8
20260504015143 60 265 0.0 0.0 0.00 0.00 0.00 40 1002.8
20260504014638 61 265 0.0 0.0 0.00 0.00 0.00 39 1002.8
20260504014136 62 267 0.0 0.0 0.00 0.00 0.00 38 1002.8
20260504013634 62 269 0.0 0.0 0.00 0.00 0.00 36 1002.8
20260504013130 63 280 0.0 0.0 0.00 0.00 0.00 36 1002.8
20260504012627 63 269 0.0 0.0 0.00 0.00 0.00 35 1002.8
20260504012126 64 278 0.0 0.0 0.00 0.00 0.00 35 1002.8
20260504011622 64 285 1.0 1.0 0.00 0.00 0.00 35 1002.8
20260504011118 65 271 0.0 0.0 0.00 0.00 0.00 34 1002.8
20260504010614 65 283 0.0 1.0 0.00 0.00 0.00 33 1003.1
20260504010110 65 280 0.0 0.0 0.00 0.00 0.00 33 1003.1
20260504005607 66 254 3.0 3.0 0.00 0.00 0.00 32 1003.1
20260504005104 66 278 2.0 2.0 0.00 0.00 0.00 31 1003.1
20260504004602 66 285 0.0 0.0 0.00 0.00 0.00 31 1003.1
20260504004059 66 279 2.0 2.0 0.00 0.00 0.00 30 1003.1
20260504003555 66 264 0.0 0.0 0.00 0.00 0.00 30 1002.8
20260504003052 67 268 1.0 3.0 0.00 0.00 0.00 29 1003.1
20260504002549 67 282 4.0 5.0 0.00 0.00 0.00 28 1003.1
20260504002047 67 252 5.0 6.0 0.00 0.00 0.00 27 1003.1
20260504001544 68 269 5.0 7.0 0.00 0.00 0.00 27 1003.1
20260504001040 68 251 5.0 6.0 0.00 0.00 0.00 28 1003.1
20260504000537 68 279 5.0 7.0 0.00 0.00 0.00 28 1003.5
20260504000035 68 279 0.0 0.0 0.00 0.00 0.00 28 1003.1
20260503235533 68 239 5.0 6.0 0.00 0.00 0.00 28 1003.1
20260503235029 68 350 1.0 3.0 0.00 0.00 0.00 28 1003.5
20260503234527 68 282 2.0 6.0 0.00 0.00 0.00 27 1003.1
20260503234026 69 284 6.0 7.0 0.00 0.00 0.00 27 1003.1
20260503233521 70 285 6.0 8.0 0.00 0.00 0.00 26 1003.1
20260503233017 70 295 0.0 0.0 0.00 0.00 0.00 27 1003.1
20260503232514 70 284 3.0 3.0 0.00 0.00 0.00 26 1003.5
20260503232012 70 296 0.0 0.0 0.00 0.00 0.00 26 1003.8
20260503231510 70 273 4.0 5.0 0.00 0.00 0.00 25 1003.5
20260503231006 70 281 1.0 1.0 0.00 0.00 0.00 26 1003.8
20260503230503 70 280 7.0 9.0 0.00 0.00 0.00 25 1003.5
20260503230000 70 318 3.0 5.0 0.00 0.00 0.00 26 1003.8
20260503225457 70 286 0.0 0.0 0.00 0.00 0.00 28 1003.8
20260503224952 69 331 5.0 8.0 0.00 0.00 0.00 26 1003.5
20260503224449 70 330 1.0 3.0 0.00 0.00 0.00 27 1003.8
20260503223947 70 336 0.0 0.0 0.00 0.00 0.00 27 1003.8
20260503223445 69 292 3.0 7.0 0.00 0.00 0.00 26 1003.8
20260503222940 70 283 4.0 5.0 0.00 0.00 0.00 26 1003.8
20260503222439 70 293 4.0 7.0 0.00 0.00 0.00 26 1004.1
20260503221937 71 287 3.0 6.0 0.00 0.00 0.00 26 1003.8
20260503221435 70 305 4.0 6.0 0.00 0.00 0.00 25 1003.8
20260503220931 69 299 7.0 9.0 0.00 0.00 0.00 26 1003.8
20260503220428 69 277 0.0 0.0 0.00 0.00 0.00 27 1003.8
20260503215925 69 290 4.0 6.0 0.00 0.00 0.00 26 1004.1
20260503215422 69 311 3.0 7.0 0.00 0.00 0.00 26 1004.1
20260503214919 69 333 3.0 6.0 0.00 0.00 0.00 25 1004.1
20260503214417 69 329 6.0 10.0 0.00 0.00 0.00 25 1003.8
20260503213914 69 298 7.0 11.0 0.00 0.00 0.00 25 1004.1
20260503213412 70 316 6.0 9.0 0.00 0.00 0.00 25 1003.8
20260503212908 69 291 0.0 0.0 0.00 0.00 0.00 28 1003.8
20260503212406 69 219 0.0 0.0 0.00 0.00 0.00 29 1004.1
20260503211903 70 332 5.0 6.0 0.00 0.00 0.00 27 1004.1
20260503211400 70 271 3.0 5.0 0.00 0.00 0.00 29 1004.5
20260503210855 69 286 4.0 7.0 0.00 0.00 0.00 27 1004.1
20260503210353 70 278 6.0 8.0 0.00 0.00 0.00 27 1004.1
20260503205847 71 248 4.0 7.0 0.00 0.00 0.00 28 1004.5
20260503205344 70 245 0.0 0.0 0.00 0.00 0.00 29 1004.1
20260503204840 69 314 1.0 2.0 0.00 0.00 0.00 29 1004.1
20260503204338 69 340 3.0 3.0 0.00 0.00 0.00 30 1004.5
20260503203835 70 278 1.0 2.0 0.00 0.00 0.00 30 1004.5
20260503203332 69 293 5.0 6.0 0.00 0.00 0.00 30 1004.5
20260503202829 69 341 1.0 3.0 0.00 0.00 0.00 31 1004.5
20260503202327 69 327 5.0 9.0 0.00 0.00 0.00 30 1004.5
20260503201826 69 273 2.0 5.0 0.00 0.00 0.00 29 1004.5
20260503201322 69 344 3.0 3.0 0.00 0.00 0.00 32 1004.8
20260503200820 68 292 0.0 0.0 0.00 0.00 0.00 31 1004.5
20260503200315 68 296 4.0 6.0 0.00 0.00 0.00 31 1004.8
20260503195813 69 356 0.0 0.0 0.00 0.00 0.00 31 1004.8
20260503195309 68 261 0.0 0.0 0.00 0.00 0.00 31 1004.8
20260503194807 69 277 3.0 7.0 0.00 0.00 0.00 31 1005.2
20260503194302 68 276 0.0 0.0 0.00 0.00 0.00 33 1005.2
20260503193759 68 262 0.0 0.0 0.00 0.00 0.00 34 1005.2
20260503193255 68 328 2.0 3.0 0.00 0.00 0.00 31 1005.2
20260503192751 69 280 8.0 11.0 0.00 0.00 0.00 31 1005.6
20260503192246 68 295 1.0 1.0 0.00 0.00 0.00 33 1005.2
20260503191743 67 51 9.0 13.0 0.00 0.00 0.00 30 1005.6
20260503191240 67 353 9.0 11.0 0.00 0.00 0.00 30 1005.2
20260503190737 69 332 11.0 15.0 0.00 0.00 0.00 30 1005.6
20260503190234 68 276 1.0 2.0 0.00 0.00 0.00 32 1005.6
20260503185731 68 344 2.0 5.0 0.00 0.00 0.00 31 1005.6
20260503185226 67 328 6.0 8.0 0.00 0.00 0.00 31 1005.6
20260503184721 67 348 5.0 7.0 0.00 0.00 0.00 31 1005.2
20260503184218 69 320 5.0 7.0 0.00 0.00 0.00 31 1005.6
20260503183714 68 279 4.0 5.0 0.00 0.00 0.00 31 1005.6
20260503183212 68 325 7.0 10.0 0.00 0.00 0.00 31 1005.6
20260503182710 67 272 0.0 0.0 0.00 0.00 0.00 34 1005.6
20260503182208 67 323 6.0 9.0 0.00 0.00 0.00 31 1005.6
20260503181704 68 336 7.0 11.0 0.00 0.00 0.00 30 1005.9
20260503181201 67 334 3.0 5.0 0.00 0.00 0.00 32 1005.6
20260503180658 66 287 2.0 3.0 0.00 0.00 0.00 36 1005.9
20260503180156 66 329 5.0 6.0 0.00 0.00 0.00 35 1005.9
20260503175653 66 59 4.0 7.0 0.00 0.00 0.00 36 1005.9
20260503175150 66 352 5.0 7.0 0.00 0.00 0.00 36 1005.6
20260503174646 67 341 6.0 8.0 0.00 0.00 0.00 37 1005.9
20260503174144 66 280 1.0 2.0 0.00 0.00 0.00 38 1005.9
20260503173639 67 317 8.0 10.0 0.00 0.00 0.00 37 1005.6
20260503173135 66 331 0.0 2.0 0.00 0.00 0.00 42 1005.9
20260503172632 65 270 2.0 3.0 0.00 0.00 0.00 40 1005.9
20260503172130 66 352 10.0 13.0 0.00 0.00 0.00 39 1006.3
20260503171626 66 349 4.0 5.0 0.00 0.00 0.00 38 1005.9
20260503171123 66 337 3.0 6.0 0.00 0.00 0.00 39 1005.6
20260503170621 66 308 1.0 3.0 0.00 0.00 0.00 39 1005.9
20260503170117 65 354 5.0 8.0 0.00 0.00 0.00 37 1005.9
20260503151012 61 50 5.0 8.0 0.00 0.00 0.00 49 1005.6
20260503150509 60 321 1.0 2.0 0.00 0.00 0.00 50 1005.9
20260503131402 54 315 0.0 1.0 0.00 0.00 0.00 58 1004.5
20260503130859 54 343 3.0 5.0 0.00 0.00 0.00 59 1004.5
20260503130356 54 289 5.0 6.0 0.00 0.00 0.00 58 1004.5
20260503110755 49 214 0.0 0.0 0.00 0.00 0.00 59 1003.1
20260503110252 49 259 0.0 0.0 0.00 0.00 0.00 59 1003.1
20260503100219 51 221 0.0 0.0 0.00 0.00 0.00 56 1003.5